Theta_e
340 338 339 339 338 337 334 332 331 329 328 327 326 325 324 324 323 322 322 322 322 323
336 335 335 334 334 333 332 329 326 326 324 324 325 326 324 324 323 322 321 321 323 320
335 336 334 334 331 330 326 325 323 322 323 324 326 326 325 323 323 319 320 323 328 326
333 332 333 331 328 325 323 321 320 320 321 322 323 323 321 323 324 325 324 325 326 324
330 329 328 327 324 321 319 319 320 321 322 322 322 321 322 324 324 323 321 321 321 322
327 326 324 322 321 320 320 319 320 321 321 320 320 320 321 321 320 319 319 321 322 323
325 325 326 325 325 322 320 319 320 320 319 318 319 320 319 318 317 318 319 321 322 323
325 326 326 324 323 321 320 318 318 318 317 317 318 317 317 317 317 318 318 319 321 323
325 325 324 322 320 320 319 318 318 317 317 316 317 321 323 320 319 319 318 318 320 320
325 322 320 320 318 317 316 316 316 316 316 317 319 320 322 325 325 322 321 319 319 319
322 320 319 318 316 315 315 316 317 318 318 319 321 320 320 323 326 324 323 322 322 321
322 320 319 317 316 316 317 317 318 319 320 319 321 318 318 321 323 322 322 323 323 321
323 322 320 319 318 318 319 319 320 321 321 320 321 317 315 318 321 320 320 322 322 320
323 321 321 321 320 320 320 320 320 319 320 320 319 320 314 314 320 320 320 320 321 322
Wind_Speed
9 5 6 6 4 1 2 1 2 3 4 5 5 5 5 3 4 5 4 7 4 5
7 12 7 5 2 2 3 1 4 4 5 5 5 5 5 4 4 4 4 4 5 4
5 11 5 4 4 3 4 3 4 4 4 5 4 4 4 4 4 5 3 4 5 4
5 12 8 7 5 4 4 4 5 5 5 4 4 3 4 4 5 5 4 5 4 5
7 8 8 7 6 5 5 3 5 6 5 4 3 3 4 4 4 4 4 4 5 5
7 7 8 7 6 6 6 6 4 4 4 4 4 4 4 4 5 5 4 4 3 3
9 8 8 8 7 7 5 6 5 4 4 4 4 4 4 3 3 2 1 2 2 2
9 8 7 6 6 6 5 4 4 5 4 4 4 3 4 3 2 2 2 1 2 3
9 8 7 6 6 5 5 4 3 3 4 4 3 5 6 5 3 3 3 3 4 3
8 7 7 6 6 4 4 4 4 4 3 3 4 6 7 7 4 5 5 5 5 7
7 6 6 6 6 4 3 3 3 3 4 4 5 9 8 9 6 5 6 7 8 7
6 6 6 5 5 3 3 3 3 2 4 6 7 8 10 5 3 5 7 8 8 8
6 5 5 5 5 4 3 3 3 5 5 6 7 7 7 4 3 6 6 7 9 13
5 6 5 4 4 3 4 3 3 5 4 5 6 8 9 9 6 6 6 7 6 7
Wind_Direction
108 107 79 66 61 40 50 135 131 103 89 87 84 82 85 84 74 81 80 77 68 69
111 85 59 81 67 70 109 159 85 86 87 80 90 99 100 91 92 82 82 85 80 78
131 110 102 121 137 139 105 86 89 81 83 95 90 93 103 99 89 97 85 81 84 90
176 127 149 141 124 113 107 126 132 136 126 114 113 111 116 101 110 101 92 80 91 79
108 119 112 117 120 128 134 148 147 131 119 123 119 122 120 119 106 100 101 95 92 81
125 112 113 127 136 136 153 156 140 124 144 152 150 135 111 123 118 115 124 115 113 97
137 135 141 145 155 149 149 144 156 156 143 149 143 157 147 138 119 114 117 140 145 173
136 144 146 139 133 140 157 151 152 150 145 160 169 173 175 161 161 177 215 262 255 252
145 146 145 141 139 154 167 160 151 165 170 189 206 211 200 178 206 227 252 263 254 258
140 139 144 149 142 151 172 174 179 192 183 219 236 244 244 235 220 232 243 253 270 265
139 143 148 150 162 167 169 186 197 217 222 244 249 246 248 248 247 250 256 249 245 243
147 152 151 158 168 162 184 201 224 240 239 242 268 227 242 242 253 254 256 255 252 246
152 156 174 175 177 188 198 220 228 254 242 239 259 272 272 255 253 257 255 255 254 246
173 183 187 182 187 190 218 247 251 249 259 260 244 266 249 234 236 242 254 254 257 238